Location: Martz Observatory
(42.0083°N, 79.0667°W)
Time: 03:36:46
(UTC-04:00)

SWAS - Pass Details

Date: 26 May 2018
Orbit: 580 x 593 km, 69.9° (Epoch: 21 June)

Event Time Altitude Azimuth Distance (km) Brightness Sun altitude
Rises 03:42:45 0° 331° (NNW) 2,824 8.3 -18.0°
Reaches altitude 10° 03:45:00 10° 329° (NNW) 1,921 7.4 -17.8°
Maximum altitude 03:49:16 67° 248° (WSW) 643 4.4 -17.3°
Enters shadow 03:52:05 21° 169° (S) 1,353 5.9 -17.0°
